TimeEST,TemperatureF,Dew PointF,Humidity,Sea Level PressureIn,VisibilityMPH,Wind Direction,Wind SpeedMPH,Gust SpeedMPH,PrecipitationIn,Events,Conditions,WindDirDegrees,DateUTC
12:15 AM,31.1,27.5,87,30.05,10.0,Calm,Calm,-,N/A,,Clear,0,2013-03-05 05:15:00
12:35 AM,31.5,27.5,85,30.05,10.0,Calm,Calm,-,N/A,,Clear,0,2013-03-05 05:35:00
12:55 AM,31.1,27.7,87,30.05,10.0,Calm,Calm,-,N/A,,Clear,0,2013-03-05 05:55:00
1:15 AM,30.6,27.3,88,30.04,10.0,Calm,Calm,-,N/A,,Clear,0,2013-03-05 06:15:00
1:35 AM,31.1,27.9,88,30.05,10.0,Calm,Calm,-,N/A,,Clear,0,2013-03-05 06:35:00
1:55 AM,31.1,27.5,87,30.04,10.0,Calm,Calm,-,N/A,,Scattered Clouds,0,2013-03-05 06:55:00
2:15 AM,30.7,27.3,87,30.03,10.0,Calm,Calm,-,N/A,,Mostly Cloudy,0,2013-03-05 07:15:00
2:35 AM,30.7,27.1,86,30.02,10.0,Calm,Calm,-,N/A,,Scattered Clouds,0,2013-03-05 07:35:00
3:15 AM,31.1,27.5,87,30.01,10.0,Calm,Calm,-,N/A,,Mostly Cloudy,0,2013-03-05 08:15:00
3:35 AM,32.0,28.4,87,30.00,10.0,Calm,Calm,-,N/A,,Overcast,0,2013-03-05 08:35:00
4:15 AM,33.3,28.4,82,29.99,10.0,Calm,Calm,-,N/A,,Overcast,0,2013-03-05 09:15:00
4:35 AM,33.8,29.1,83,29.99,10.0,Calm,Calm,-,N/A,,Overcast,0,2013-03-05 09:35:00
4:55 AM,34.0,29.3,83,29.99,10.0,Calm,Calm,-,N/A,,Overcast,0,2013-03-05 09:55:00
5:15 AM,34.7,29.8,82,29.99,7.0,Calm,Calm,-,N/A,Rain,Rain,0,2013-03-05 10:15:00
5:35 AM,34.5,30.7,86,29.99,10.0,Calm,Calm,-,N/A,,Overcast,0,2013-03-05 10:35:00
5:55 AM,34.7,30.6,85,29.98,4.0,Calm,Calm,-,0.01,Rain,Rain,0,2013-03-05 10:55:00
6:15 AM,34.5,31.5,89,29.98,10.0,Calm,Calm,-,N/A,,Light Drizzle,0,2013-03-05 11:15:00
6:35 AM,34.9,31.6,88,29.98,10.0,Calm,Calm,-,N/A,,Light Drizzle,0,2013-03-05 11:35:00
6:55 AM,34.7,32.0,90,29.97,10.0,Calm,Calm,-,N/A,,Light Drizzle,0,2013-03-05 11:55:00
7:15 AM,35.1,32.0,89,29.97,10.0,Calm,Calm,-,N/A,,Overcast,0,2013-03-05 12:15:00
7:35 AM,35.4,32.4,89,29.97,7.0,Calm,Calm,-,N/A,,Drizzle,0,2013-03-05 12:35:00
8:15 AM,35.6,32.9,90,29.97,5.0,Calm,Calm,-,0.02,Rain,Rain,0,2013-03-05 13:15:00
8:35 AM,35.6,32.9,90,29.97,3.0,Calm,Calm,-,0.03,,Drizzle,0,2013-03-05 13:35:00
8:55 AM,35.8,33.3,91,29.96,4.0,Calm,Calm,-,0.03,,Heavy Drizzle,0,2013-03-05 13:55:00
9:15 AM,36.1,33.4,90,29.95,7.0,Calm,Calm,-,0.01,,Light Drizzle,0,2013-03-05 14:15:00
9:35 AM,36.5,33.8,90,29.95,4.0,Calm,Calm,-,0.01,Rain,Rain,0,2013-03-05 14:35:00
9:55 AM,36.9,34.3,91,29.94,2.0,Calm,Calm,-,0.01,,Drizzle,0,2013-03-05 14:55:00
10:15 AM,37.4,35.2,92,29.94,2.5,Calm,Calm,-,N/A,,Drizzle,0,2013-03-05 15:15:00
10:35 AM,37.6,35.6,93,29.93,2.0,Calm,Calm,-,0.01,,Drizzle,0,2013-03-05 15:35:00
10:55 AM,37.8,36.0,93,29.92,3.0,Calm,Calm,-,0.02,Rain,Rain,0,2013-03-05 15:55:00
11:15 AM,38.1,36.5,94,29.91,3.0,Calm,Calm,-,N/A,,Light Drizzle,0,2013-03-05 16:15:00
11:35 AM,38.3,36.7,94,29.89,4.0,Calm,Calm,-,0.01,Rain,Light Rain,0,2013-03-05 16:35:00
11:55 AM,38.7,37.0,94,29.88,5.0,Calm,Calm,-,0.01,,Light Drizzle,0,2013-03-05 16:55:00
12:15 PM,39.4,37.4,93,29.88,7.0,WNW,3.5,-,N/A,,Overcast,290,2013-03-05 17:15:00
12:35 PM,40.1,37.9,92,29.87,10.0,Calm,Calm,-,N/A,,Overcast,0,2013-03-05 17:35:00
12:55 PM,40.5,37.9,91,29.86,7.0,Calm,Calm,-,N/A,Rain,Rain,0,2013-03-05 17:55:00
1:15 PM,40.6,38.5,92,29.83,5.0,Calm,Calm,-,0.01,Rain,Light Rain,0,2013-03-05 18:15:00
1:35 PM,41.0,39.0,93,29.82,4.0,Calm,Calm,-,0.01,Rain,Light Rain,0,2013-03-05 18:35:00
1:55 PM,41.0,39.6,95,29.79,4.0,NE,3.5,-,0.03,Rain,Light Rain,40,2013-03-05 18:55:00
2:15 PM,41.7,40.3,95,29.79,4.0,Calm,Calm,-,0.01,Rain,Light Rain,0,2013-03-05 19:15:00
2:35 PM,42.8,41.4,95,29.77,3.0,Calm,Calm,-,0.02,Rain,Rain,0,2013-03-05 19:35:00
2:55 PM,43.2,41.9,95,29.74,4.0,Calm,Calm,-,0.02,,Overcast,0,2013-03-05 19:55:00
3:15 PM,43.7,42.6,96,29.74,5.0,WSW,3.5,-,N/A,,Overcast,250,2013-03-05 20:15:00
3:35 PM,43.7,42.8,97,29.72,2.0,Calm,Calm,-,0.02,Rain,Rain,0,2013-03-05 20:35:00
3:55 PM,46.4,45.7,97,29.69,2.5,SSE,6.9,-,0.06,Rain,Heavy Rain,150,2013-03-05 20:55:00
4:15 PM,49.8,48.7,96,29.66,5.0,SE,6.9,-,0.07,Rain,Rain,140,2013-03-05 21:15:00
4:35 PM,50.4,47.5,90,29.66,3.0,SSE,5.8,-,0.16,Rain,Heavy Rain,160,2013-03-05 21:35:00
4:55 PM,50.0,47.8,92,29.66,3.0,Calm,Calm,-,0.26,Rain,Heavy Rain,0,2013-03-05 21:55:00
5:15 PM,49.3,48.2,96,29.68,3.0,WNW,4.6,-,0.10,Rain,Heavy Rain,290,2013-03-05 22:15:00
5:35 PM,48.4,47.7,97,29.68,2.5,Calm,Calm,-,0.15,Rain,Rain,0,2013-03-05 22:35:00
5:55 PM,47.7,47.3,99,29.67,3.0,ESE,4.6,-,0.21,Rain,Light Rain,110,2013-03-05 22:55:00
6:15 PM,47.8,47.3,98,29.70,10.0,WNW,3.5,-,N/A,,Overcast,290,2013-03-05 23:15:00
6:35 PM,50.5,40.8,69,29.69,10.0,West,6.9,-,N/A,,Mostly Cloudy,270,2013-03-05 23:35:00
6:55 PM,49.5,41.2,73,29.69,10.0,WSW,5.8,-,N/A,Rain,Light Rain,250,2013-03-05 23:55:00
7:15 PM,50.4,39.4,66,29.69,10.0,West,9.2,-,N/A,,Overcast,260,2013-03-06 00:15:00
7:35 PM,49.8,37.4,62,29.70,10.0,West,11.5,23.0,N/A,,Mostly Cloudy,260,2013-03-06 00:35:00
7:55 PM,49.1,34.9,58,29.71,10.0,West,19.6,28.8,N/A,,Scattered Clouds,260,2013-03-06 00:55:00
8:15 PM,47.3,34.7,62,29.73,7.0,WNW,11.5,24.2,N/A,Rain,Rain,290,2013-03-06 01:15:00
8:35 PM,44.2,33.6,66,29.73,10.0,WNW,13.8,31.1,0.01,Rain,Rain,300,2013-03-06 01:35:00
8:55 PM,43.5,32.2,64,29.74,10.0,West,17.3,25.3,0.01,,Overcast,280,2013-03-06 01:55:00
9:15 PM,41.4,33.3,73,29.75,10.0,NNW,10.4,19.6,N/A,Rain,Rain,330,2013-03-06 02:15:00
9:35 PM,40.1,30.9,70,29.77,10.0,WNW,4.6,-,N/A,,Mostly Cloudy,290,2013-03-06 02:35:00
9:55 PM,38.1,30.0,73,29.78,10.0,North,5.8,-,N/A,Rain,Rain,360,2013-03-06 02:55:00
10:15 PM,35.4,29.5,79,29.79,10.0,NNW,5.8,16.1,N/A,Rain,Rain,330,2013-03-06 03:15:00
10:35 PM,35.2,25.7,68,29.79,10.0,WNW,8.1,-,N/A,,Overcast,300,2013-03-06 03:35:00
10:55 PM,35.6,22.8,60,29.79,10.0,NW,10.4,20.7,N/A,,Overcast,310,2013-03-06 03:55:00
11:15 PM,34.9,23.5,63,29.78,10.0,NW,9.2,-,N/A,,Overcast,310,2013-03-06 04:15:00
11:35 PM,34.5,23.4,64,29.78,10.0,NW,10.4,20.7,N/A,Snow,Light Snow,320,2013-03-06 04:35:00
11:55 PM,33.8,24.3,68,29.77,10.0,NW,5.8,-,N/A,Snow,Light Snow,320,2013-03-06 04:55:00